Simultaneous Nadir Overpasses (SNOs) Predictions

Prediction of SNOs between GOES-17 and AQUA Satellite Orbit:

Table of predicted SNOs for the next 14.0 days since TLE Epoch: 11/13/2021
Index Date Time (GOES-17) GOES-17 Lat,Lon AQUA Lat,Lon Distance(km) Time Diff (sec)
1 11/13/2021 22:30:37 -0.01,-137.21 0.80,-133.49 422.69 80
2 11/14/2021 10:49:13 0.01,-137.22 0.28,-138.65 162.59 80
3 11/16/2021 10:39:42 0.01,-137.23 -0.33,-135.69 174.63 80
4 11/16/2021 22:58:26 -0.01,-137.22 -0.79,-140.88 416.50 80
5 11/18/2021 22:46:15 -0.01,-137.22 -0.17,-137.92 80.03 80
6 11/20/2021 22:36:44 -0.01,-137.21 0.46,-134.96 255.67 80
7 11/21/2021 10:55:20 0.01,-137.22 0.61,-140.12 330.03 80
8 11/23/2021 10:45:49 0.01,-137.20 -0.03,-137.17 5.56 80
9 11/25/2021 10:33:37 0.01,-137.18 -0.61,-134.20 338.85 80
10 11/25/2021 22:52:21 -0.01,-137.17 -0.51,-139.39 253.06 80
